Погода в Песочневе

Россия / Ивановская область     57°02′39″N   40°50′46″E
темп.,
°C
ветер,
м/с
пор.,
м/с
влажн.,
%
обл.,
%
осадки,
мм/ч
давл.,
гПа
погр.,
м
22 апреля, чт
чт2200:00+3ююз3895100 0.0 1012388
03:00+3ююз3895100 0.0 1013460
06:00+3ю4994100 0.0 1014474
09:00+4ю5890100 0.1 1015643
12:00+8ю5875100 0.1 10151186
15:00+10ююз596797 0.1 10151365
18:00+10ююз487138 0.1 1015825
21:00+6ю310919 0.1 1017242
23 апреля, пт
пт2300:00+5ю311937 0.0 1017273
03:00+5ююв311945 0.0 1016251
06:00+5ююв412935 0.0 1016307
09:00+11ю5107497 0.0 1016527
12:00+15ю6105222 0.2 10151779
15:00+15ю6115179 0.4 10151682
18:00+14ю5114992 0.0 10141203
21:00+10ююв4136813 0.1 1014464
24 апреля, сб
сб2400:00+8юв413815 0.1 1013385
03:00+7юв5158323 0.1 1010480
06:00+8юв5158496 0.0 1008667
09:00+12юв7136587 0.0 10061422
12:00+12ююв61172100 0.8 10051479
15:00+4зюз4792100 2.0 1006486
18:00+3зсз3996100 2.9 1007530
21:00+4з3791100 3.3 1006679
25 апреля, вс
вс2500:00+3з3791100 0.0 1005561
03:00+2зюз3995100 0.0 1006339
06:00+2з39917 0.0 1006302
09:00+5зюз57705 0.0 1007911
12:00+7зюз6752100 0.3 10072046
15:00+8зюз584996 1.0 10081849
18:00+6зюз4762100 0.6 10081078
21:00+3юз39815 0.7 1010288
26 апреля, пн
пн2600:00+1юз411855 0.0 1011415
03:000юз410895 0.0 1011366
06:000юз310855 0.0 1012425
09:00+5юз47595 0.0 10111101
12:00+7юз5746100 0.1 10102068
15:00+8зюз574875 0.6 10101760
18:00+7зюз36518 0.1 10091540
21:00+3юз117298 0.4 100910